| time (UTC) | temp F | wind direction | speed knots | gust knots | rain 1hr in | rain 24hr in | rain mn in | humidity % | barometer mb |
| 20260504001532 | 56 | 148 | 2.6 | 4.3 | 0.00 | 0.00 | 0.00 | 40 | 1013.2 |
| 20260504001028 | 56 | 167 | 2.6 | 2.6 | 0.00 | 0.00 | 0.00 | 40 | 1013.3 |
| 20260504000525 | 57 | 97 | 0.0 | 0.0 | 0.00 | 0.00 | 0.00 | 41 | 1013.3 |
| 20260504000023 | 57 | 165 | 0.0 | 0.0 | 0.00 | 0.00 | 0.00 | 40 | 1013.3 |
| 20260503235521 | 57 | 51 | 0.9 | 0.9 | 0.00 | 0.00 | 0.00 | 40 | 1013.4 |
| 20260503235017 | 57 | 313 | 1.7 | 1.7 | 0.00 | 0.00 | 0.00 | 39 | 1013.4 |
| 20260503234515 | 57 | 239 | 4.3 | 5.2 | 0.00 | 0.00 | 0.00 | 38 | 1013.5 |
| 20260503234014 | 58 | 218 | 2.6 | 5.2 | 0.00 | 0.00 | 0.00 | 38 | 1013.2 |
| 20260503233509 | 58 | 241 | 1.7 | 1.7 | 0.00 | 0.00 | 0.00 | 37 | 1013.3 |
| 20260503233005 | 58 | 267 | 0.9 | 1.7 | 0.00 | 0.00 | 0.00 | 39 | 1013.6 |
| 20260503232502 | 58 | 223 | 3.5 | 5.2 | 0.00 | 0.00 | 0.00 | 37 | 1013.7 |
| 20260503232001 | 58 | 218 | 2.6 | 2.6 | 0.00 | 0.00 | 0.00 | 37 | 1013.3 |
| 20260503231458 | 58 | 300 | 2.6 | 2.6 | 0.00 | 0.00 | 0.00 | 38 | 1013.5 |
| 20260503230954 | 58 | 262 | 1.7 | 2.6 | 0.00 | 0.00 | 0.00 | 38 | 1013.5 |
| 20260503230451 | 58 | 259 | 1.7 | 1.7 | 0.00 | 0.00 | 0.00 | 38 | 1013.6 |
| 20260503225948 | 58 | 252 | 2.6 | 4.3 | 0.00 | 0.00 | 0.00 | 39 | 1013.4 |
| 20260503225445 | 58 | 205 | 0.9 | 1.7 | 0.00 | 0.00 | 0.00 | 39 | 1013.6 |
| 20260503224941 | 59 | 270 | 3.5 | 4.3 | 0.00 | 0.00 | 0.00 | 37 | 1013.6 |
| 20260503224438 | 59 | 268 | 4.3 | 5.2 | 0.00 | 0.00 | 0.00 | 37 | 1013.6 |
| 20260503223936 | 58 | 6 | 1.7 | 1.7 | 0.00 | 0.00 | 0.00 | 38 | 1013.8 |
| 20260503223433 | 59 | 321 | 2.6 | 4.3 | 0.00 | 0.00 | 0.00 | 41 | 1013.8 |
| 20260503222928 | 59 | 288 | 0.9 | 0.9 | 0.00 | 0.00 | 0.00 | 39 | 1013.8 |
| 20260503222427 | 59 | 289 | 2.6 | 1.7 | 0.00 | 0.00 | 0.00 | 38 | 1013.8 |
| 20260503221925 | 59 | 65 | 0.9 | 0.9 | 0.00 | 0.00 | 0.00 | 40 | 1013.8 |
| 20260503221423 | 61 | 244 | 0.9 | 1.7 | 0.00 | 0.00 | 0.00 | 37 | 1014.0 |
| 20260503220920 | 61 | 111 | 1.7 | 1.7 | 0.00 | 0.00 | 0.00 | 37 | 1013.8 |
| 20260503220416 | 61 | 200 | 2.6 | 2.6 | 0.00 | 0.00 | 0.00 | 37 | 1013.8 |
| 20260503215913 | 61 | 237 | 3.5 | 7.0 | 0.00 | 0.00 | 0.00 | 34 | 1013.6 |
| 20260503215410 | 60 | 182 | 0.9 | 0.9 | 0.00 | 0.00 | 0.00 | 40 | 1013.6 |
| 20260503214908 | 60 | 348 | 1.7 | 1.7 | 0.00 | 0.00 | 0.00 | 38 | 1013.9 |
| 20260503214405 | 60 | 199 | 3.5 | 6.1 | 0.00 | 0.00 | 0.00 | 36 | 1014.0 |
| 20260503213902 | 60 | 207 | 0.9 | 0.9 | 0.00 | 0.00 | 0.00 | 38 | 1013.7 |
| 20260503213400 | 60 | 340 | 1.7 | 1.7 | 0.00 | 0.00 | 0.00 | 38 | 1013.7 |
| 20260503212856 | 60 | 150 | 1.7 | 2.6 | 0.00 | 0.00 | 0.00 | 38 | 1013.9 |
| 20260503212355 | 61 | 230 | 2.6 | 2.6 | 0.00 | 0.00 | 0.00 | 38 | 1013.8 |
| 20260503211851 | 62 | 40 | 2.6 | 2.6 | 0.00 | 0.00 | 0.00 | 36 | 1013.9 |
| 20260503211348 | 60 | 197 | 0.9 | 0.9 | 0.00 | 0.00 | 0.00 | 35 | 1013.7 |
| 20260503210843 | 60 | 342 | 1.7 | 2.6 | 0.00 | 0.00 | 0.00 | 39 | 1013.8 |
| 20260503210341 | 60 | 235 | 4.3 | 6.1 | 0.00 | 0.00 | 0.00 | 37 | 1013.8 |
| 20260503205835 | 60 | 178 | 0.9 | 0.9 | 0.00 | 0.00 | 0.00 | 39 | 1013.6 |
| 20260503205332 | 60 | 337 | 2.6 | 4.3 | 0.00 | 0.00 | 0.00 | 37 | 1013.7 |
| 20260503204829 | 60 | 155 | 4.3 | 7.0 | 0.00 | 0.00 | 0.00 | 36 | 1013.9 |
| 20260503204327 | 61 | 254 | 2.6 | 2.6 | 0.00 | 0.00 | 0.00 | 35 | 1014.1 |
| 20260503203824 | 62 | 165 | 4.3 | 6.1 | 0.00 | 0.00 | 0.00 | 33 | 1013.9 |
| 20260503203321 | 60 | 184 | 1.7 | 1.7 | 0.00 | 0.00 | 0.00 | 35 | 1013.8 |
| 20260503202818 | 62 | 242 | 3.5 | 5.2 | 0.00 | 0.00 | 0.00 | 33 | 1014.1 |
| 20260503202316 | 62 | 31 | 2.6 | 2.6 | 0.00 | 0.00 | 0.00 | 33 | 1013.7 |
| 20260503201814 | 61 | 261 | 3.5 | 4.3 | 0.00 | 0.00 | 0.00 | 36 | 1014.1 |
| 20260503201310 | 60 | 254 | 0.9 | 1.7 | 0.00 | 0.00 | 0.00 | 39 | 1014.2 |
| 20260503200808 | 61 | 177 | 4.3 | 8.7 | 0.00 | 0.00 | 0.00 | 36 | 1013.9 |
| 20260503200303 | 60 | 185 | 7.0 | 11.3 | 0.00 | 0.00 | 0.00 | 35 | 1014.1 |
| 20260503195801 | 62 | 293 | 2.6 | 2.6 | 0.00 | 0.00 | 0.00 | 35 | 1014.1 |
| 20260503195257 | 62 | 216 | 0.9 | 1.7 | 0.00 | 0.00 | 0.00 | 36 | 1014.6 |
| 20260503194755 | 61 | 24 | 0.9 | 0.9 | 0.00 | 0.00 | 0.00 | 38 | 1014.2 |
| 20260503194250 | 60 | 300 | 4.3 | 5.2 | 0.00 | 0.00 | 0.00 | 38 | 1014.5 |
| 20260503193747 | 60 | 288 | 3.5 | 5.2 | 0.00 | 0.00 | 0.00 | 36 | 1014.7 |
| 20260503193243 | 61 | 340 | 4.3 | 8.7 | 0.00 | 0.00 | 0.00 | 37 | 1015.1 |
| 20260503192739 | 62 | 310 | 2.6 | 2.6 | 0.00 | 0.00 | 0.00 | 38 | 1015.1 |
| 20260503192234 | 60 | 258 | 2.6 | 4.3 | 0.00 | 0.00 | 0.00 | 39 | 1014.8 |
| 20260503191731 | 62 | 327 | 7.8 | 11.3 | 0.00 | 0.00 | 0.00 | 34 | 1015.0 |
| 20260503191228 | 62 | 236 | 5.2 | 6.1 | 0.00 | 0.00 | 0.00 | 36 | 1015.0 |
| 20260503190725 | 61 | 236 | 3.5 | 5.2 | 0.00 | 0.00 | 0.00 | 38 | 1015.1 |
| 20260503190222 | 61 | 252 | 6.1 | 7.8 | 0.00 | 0.00 | 0.00 | 35 | 1015.2 |
| 20260503185719 | 62 | 221 | 1.7 | 1.7 | 0.00 | 0.00 | 0.00 | 36 | 1015.2 |
| 20260503185214 | 62 | 269 | 0.9 | 0.9 | 0.00 | 0.00 | 0.00 | 36 | 1015.3 |
| 20260503184709 | 62 | 11 | 5.2 | 7.0 | 0.00 | 0.00 | 0.00 | 34 | 1015.4 |
| 20260503184206 | 62 | 303 | 7.0 | 8.7 | 0.00 | 0.00 | 0.00 | 37 | 1015.2 |
| 20260503183702 | 61 | 175 | 2.6 | 4.3 | 0.00 | 0.00 | 0.00 | 36 | 1015.4 |
| 20260503183200 | 61 | 278 | 2.6 | 2.6 | 0.00 | 0.00 | 0.00 | 36 | 1015.6 |
| 20260503182658 | 60 | 180 | 0.9 | 0.9 | 0.00 | 0.00 | 0.00 | 37 | 1015.5 |
| 20260503182156 | 59 | 238 | 6.1 | 12.2 | 0.00 | 0.00 | 0.00 | 36 | 1015.5 |
| 20260503181652 | 59 | 346 | 3.5 | 4.3 | 0.00 | 0.00 | 0.00 | 36 | 1015.7 |
| 20260503181149 | 60 | 282 | 3.5 | 4.3 | 0.00 | 0.00 | 0.00 | 36 | 1015.6 |
| 20260503180646 | 59 | 351 | 9.6 | 12.2 | 0.00 | 0.00 | 0.00 | 35 | 1015.4 |
| 20260503180144 | 60 | 319 | 7.0 | 7.0 | 0.00 | 0.00 | 0.00 | 37 | 1015.8 |
| 20260503175641 | 59 | 220 | 2.6 | 4.3 | 0.00 | 0.00 | 0.00 | 36 | 1015.8 |
| 20260503175138 | 59 | 334 | 4.3 | 7.0 | 0.00 | 0.00 | 0.00 | 41 | 1015.7 |
| 20260503174634 | 59 | 324 | 2.6 | 2.6 | 0.00 | 0.00 | 0.00 | 40 | 1016.0 |
| 20260503174132 | 58 | 326 | 5.2 | 6.1 | 0.00 | 0.00 | 0.00 | 40 | 1016.0 |
| 20260503173626 | 58 | 8 | 5.2 | 7.0 | 0.00 | 0.00 | 0.00 | 41 | 1016.0 |
| 20260503173123 | 60 | 302 | 9.6 | 11.3 | 0.00 | 0.00 | 0.00 | 38 | 1016.1 |
| 20260503172620 | 59 | 293 | 2.6 | 4.3 | 0.00 | 0.00 | 0.00 | 40 | 1016.2 |
| 20260503172118 | 60 | 185 | 2.6 | 4.3 | 0.00 | 0.00 | 0.00 | 43 | 1016.0 |
| 20260503171614 | 60 | 343 | 2.6 | 5.2 | 0.00 | 0.00 | 0.00 | 42 | 1016.5 |
| 20260503171112 | 59 | 268 | 1.7 | 1.7 | 0.00 | 0.00 | 0.00 | 46 | 1016.6 |
| 20260503170609 | 59 | 343 | 4.3 | 5.2 | 0.00 | 0.00 | 0.00 | 39 | 1016.5 |
| 20260503170105 | 59 | 316 | 0.9 | 1.7 | 0.00 | 0.00 | 0.00 | 46 | 1016.2 |
| 20260503151000 | 55 | 210 | 4.3 | 6.1 | 0.00 | 0.00 | 0.00 | 39 | 1017.5 |
| 20260503150456 | 55 | 179 | 4.3 | 5.2 | 0.00 | 0.00 | 0.00 | 41 | 1017.3 |
| 20260503131350 | 48 | 352 | 1.7 | 0.9 | 0.00 | 0.00 | 0.00 | 47 | 1018.1 |
| 20260503130847 | 49 | 175 | 0.9 | 1.7 | 0.00 | 0.00 | 0.00 | 46 | 1018.2 |
| 20260503130344 | 49 | 189 | 0.9 | 0.9 | 0.00 | 0.00 | 0.00 | 47 | 1018.1 |
| 20260503110738 | 37 | 309 | 0.9 | 0.9 | 0.00 | 0.00 | 0.00 | 70 | 1017.4 |
| 20260503110235 | 37 | 242 | 0.0 | 0.0 | 0.00 | 0.00 | 0.00 | 71 | 1017.7 |
| 20260503100156 | 36 | 286 | 0.9 | 0.9 | 0.00 | 0.00 | 0.00 | 76 | 1017.2 |
| 20260503090115 | 36 | 85 | 0.0 | 0.0 | 0.00 | 0.00 | 0.00 | 77 | 1017.5 |
| 20260503081545 | 36 | 213 | 0.0 | 0.0 | 0.00 | 0.00 | 0.00 | 79 | 1017.5 |
| 20260503081042 | 36 | 197 | 0.0 | 0.0 | 0.00 | 0.00 | 0.00 | 78 | 1017.5 |
| 20260503080538 | 36 | 237 | 0.0 | 0.0 | 0.00 | 0.00 | 0.00 | 78 | 1017.6 |
| 20260503072512 | 36 | 251 | 0.0 | 0.0 | 0.00 | 0.00 | 0.00 | 79 | 1017.3 |
| 20260503072009 | 36 | 241 | 0.9 | 0.9 | 0.00 | 0.00 | 0.00 | 80 | 1017.4 |
| 20260503071506 | 36 | 331 | 0.0 | 0.0 | 0.00 | 0.00 | 0.00 | 80 | 1017.5 |
| 20260503071003 | 36 | 309 | 0.0 | 0.0 | 0.00 | 0.00 | 0.00 | 80 | 1017.4 |
| 20260503070459 | 36 | 252 | 0.0 | 0.0 | 0.00 | 0.00 | 0.00 | 80 | 1017.4 |
| 20260503054922 | 35 | 139 | 0.0 | 0.0 | 0.00 | 0.00 | 0.00 | 86 | 1017.6 |
| 20260503054418 | 35 | 152 | 0.0 | 0.0 | 0.00 | 0.00 | 0.00 | 87 | 1017.6 |
| 20260503053917 | 35 | 169 | 0.0 | 0.0 | 0.00 | 0.00 | 0.00 | 87 | 1017.5 |
| 20260503053414 | 35 | 162 | 0.0 | 0.0 | 0.00 | 0.00 | 0.00 | 87 | 1017.6 |
| 20260503052910 | 35 | 162 | 0.0 | 0.0 | 0.00 | 0.00 | 0.00 | 86 | 1017.8 |
| 20260503052408 | 35 | 162 | 0.0 | 0.0 | 0.00 | 0.00 | 0.00 | 86 | 1017.8 |
| 20260503051904 | 35 | 162 | 0.0 | 0.0 | 0.00 | 0.00 | 0.00 | 86 | 1017.8 |
| 20260503051400 | 35 | 162 | 0.0 | 0.0 | 0.00 | 0.00 | 0.00 | 85 | 1017.9 |
| 20260503050857 | 35 | 162 | 0.0 | 0.0 | 0.00 | 0.00 | 0.00 | 85 | 1017.7 |
| 20260503050353 | 36 | 162 | 0.0 | 0.0 | 0.00 | 0.00 | 0.00 | 84 | 1017.6 |
| 20260503045851 | 36 | 162 | 0.0 | 0.0 | 0.00 | 0.00 | 0.00 | 83 | 1017.8 |
| 20260503045348 | 37 | 162 | 0.0 | 0.0 | 0.00 | 0.00 | 0.00 | 82 | 1017.9 |
| 20260503044845 | 37 | 162 | 0.0 | 0.0 | 0.00 | 0.00 | 0.00 | 80 | 1017.9 |
| 20260503044342 | 37 | 161 | 0.0 | 0.0 | 0.00 | 0.00 | 0.00 | 79 | 1017.9 |
| 20260503043839 | 38 | 161 | 0.0 | 0.0 | 0.00 | 0.00 | 0.00 | 78 | 1017.8 |
| 20260503043336 | 38 | 161 | 0.0 | 0.0 | 0.00 | 0.00 | 0.00 | 77 | 1017.8 |
| 20260503042832 | 39 | 151 | 0.0 | 0.0 | 0.00 | 0.00 | 0.00 | 76 | 1017.7 |
| 20260503042329 | 39 | 191 | 0.0 | 0.0 | 0.00 | 0.00 | 0.00 | 76 | 1017.9 |
| 20260503041825 | 39 | 195 | 0.0 | 0.0 | 0.00 | 0.00 | 0.00 | 75 | 1017.9 |
| 20260503041322 | 40 | 245 | 0.0 | 0.0 | 0.00 | 0.00 | 0.00 | 75 | 1018.2 |
| 20260503040820 | 40 | 239 | 0.0 | 0.0 | 0.00 | 0.00 | 0.00 | 75 | 1018.0 |
| 20260503040317 | 40 | 193 | 0.0 | 0.0 | 0.00 | 0.00 | 0.00 | 76 | 1017.9 |
| 20260503035814 | 40 | 194 | 0.0 | 0.9 | 0.00 | 0.13 | 0.13 | 76 | 1018.0 |
| 20260503035311 | 39 | 168 | 0.9 | 0.9 | 0.00 | 0.13 | 0.13 | 76 | 1017.8 |
| 20260503034808 | 39 | 159 | 0.0 | 0.0 | 0.00 | 0.13 | 0.13 | 75 | 1018.1 |
| 20260503034305 | 39 | 140 | 0.0 | 0.0 | 0.00 | 0.13 | 0.13 | 76 | 1017.8 |
| 20260503033803 | 39 | 59 | 0.0 | 0.0 | 0.00 | 0.13 | 0.13 | 75 | 1018.0 |
| 20260503033300 | 39 | 166 | 0.0 | 0.0 | 0.00 | 0.13 | 0.13 | 75 | 1018.1 |
| 20260503032758 | 40 | 175 | 0.0 | 0.0 | 0.00 | 0.13 | 0.13 | 74 | 1018.1 |
| 20260503032257 | 39 | 186 | 0.0 | 0.0 | 0.00 | 0.13 | 0.13 | 74 | 1018.0 |
| 20260503031753 | 39 | 140 | 0.0 | 0.0 | 0.00 | 0.13 | 0.13 | 75 | 1018.3 |
| 20260503031251 | 39 | 141 | 0.0 | 0.0 | 0.00 | 0.13 | 0.13 | 75 | 1018.2 |
| 20260503030747 | 39 | 155 | 0.0 | 0.0 | 0.00 | 0.13 | 0.13 | 75 | 1018.1 |
| 20260503030244 | 39 | 69 | 0.0 | 0.0 | 0.00 | 0.13 | 0.13 | 76 | 1018.1 |
| 20260503025741 | 39 | 7 | 0.0 | 0.0 | 0.00 | 0.13 | 0.13 | 80 | 1018.2 |
| 20260503025238 | 39 | 7 | 0.0 | 0.0 | 0.00 | 0.13 | 0.13 | 81 | 1018.1 |
| 20260503024735 | 39 | 7 | 0.0 | 0.0 | 0.00 | 0.13 | 0.13 | 82 | 1018.3 |
| 20260503024232 | 39 | 7 | 0.0 | 0.0 | 0.00 | 0.13 | 0.13 | 84 | 1018.4 |
| 20260503023729 | 39 | 7 | 0.0 | 0.0 | 0.00 | 0.13 | 0.13 | 84 | 1018.4 |
| 20260503023226 | 39 | 7 | 0.0 | 0.0 | 0.00 | 0.13 | 0.13 | 83 | 1018.6 |
| 20260503022722 | 39 | 7 | 0.0 | 0.0 | 0.00 | 0.13 | 0.13 | 83 | 1018.4 |
| 20260503022222 | 39 | 7 | 0.0 | 0.0 | 0.00 | 0.13 | 0.13 | 83 | 1018.3 |
| 20260503021719 | 39 | 7 | 0.0 | 0.0 | 0.00 | 0.13 | 0.13 | 82 | 1018.3 |
| 20260503021215 | 39 | 7 | 0.0 | 0.0 | 0.00 | 0.13 | 0.13 | 81 | 1018.5 |
| 20260503020713 | 39 | 7 | 0.0 | 0.0 | 0.00 | 0.13 | 0.13 | 83 | 1018.4 |
| 20260503020211 | 39 | 7 | 0.0 | 0.0 | 0.00 | 0.13 | 0.13 | 84 | 1018.5 |
| 20260503015707 | 39 | 7 | 0.0 | 0.0 | 0.00 | 0.13 | 0.13 | 83 | 1018.5 |
| 20260503015204 | 38 | 7 | 0.0 | 0.0 | 0.00 | 0.13 | 0.13 | 82 | 1018.2 |
| 20260503014700 | 39 | 7 | 0.0 | 0.0 | 0.00 | 0.13 | 0.13 | 84 | 1018.4 |
| 20260503014158 | 39 | 7 | 0.0 | 0.0 | 0.00 | 0.13 | 0.13 | 85 | 1018.2 |
| 20260503013655 | 39 | 7 | 0.0 | 0.0 | 0.00 | 0.13 | 0.13 | 84 | 1018.4 |
| 20260503013153 | 39 | 7 | 0.0 | 0.0 | 0.00 | 0.13 | 0.13 | 84 | 1018.3 |
| 20260503012649 | 39 | 7 | 0.0 | 0.0 | 0.00 | 0.13 | 0.13 | 83 | 1018.4 |
| 20260503012147 | 39 | 7 | 0.0 | 0.0 | 0.00 | 0.13 | 0.13 | 83 | 1018.3 |
| 20260503011643 | 39 | 7 | 0.0 | 0.0 | 0.00 | 0.13 | 0.13 | 82 | 1018.1 |
| 20260503011140 | 39 | 7 | 0.0 | 0.0 | 0.00 | 0.13 | 0.13 | 81 | 1018.2 |
| 20260503010636 | 39 | 7 | 0.0 | 0.0 | 0.00 | 0.13 | 0.13 | 79 | 1018.1 |
| 20260503010134 | 39 | 7 | 0.0 | 0.0 | 0.00 | 0.13 | 0.13 | 78 | 1018.4 |
| 20260503005631 | 39 | 7 | 0.0 | 0.0 | 0.00 | 0.13 | 0.13 | 78 | 1018.6 |
| 20260503005128 | 39 | 7 | 0.0 | 0.0 | 0.00 | 0.13 | 0.13 | 78 | 1018.4 |
| 20260503004624 | 39 | 7 | 0.0 | 0.0 | 0.00 | 0.13 | 0.13 | 79 | 1018.3 |
| 20260503004123 | 40 | 7 | 0.0 | 0.0 | 0.00 | 0.13 | 0.13 | 78 | 1018.3 |
| 20260503003619 | 40 | 7 | 0.0 | 0.0 | 0.00 | 0.13 | 0.13 | 77 | 1018.1 |
| 20260503003116 | 40 | 7 | 0.0 | 0.0 | 0.00 | 0.13 | 0.13 | 75 | 1018.1 |
| 20260503002613 | 40 | 7 | 0.0 | 0.0 | 0.00 | 0.13 | 0.13 | 73 | 1018.2 |
| 20260503002110 | 41 | 7 | 0.0 | 0.0 | 0.00 | 0.13 | 0.13 | 72 | 1018.1 |